Location: Unspecified
(0.0000°N, 0.0000°E)
Time: 06:30:25
(UTC+00:00)

Transit 2A Rocket - Visible Passes

Search period start: 05 March 2015 00:00
Search period end: 15 March 2015 00:00
Orbit: 585 x 922 km, 66.7° (Epoch: 04 March)

Date Brightness Start Highest point End Pass type
(mag) Time Alt. Az. Time Alt. Az. Time Alt. Az.
05 Mar 6.3 19:56:15 10° NW 20:01:20 38° WSW 20:05:56 10° S visible
06 Mar 5.0 19:13:53 10° NNW 19:19:24 83° WSW 19:24:25 10° SSE visible
07 Mar 5.3 18:32:09 10° N 18:37:25 47° ENE 18:42:16 10° SE visible
08 Mar 7.4 19:33:39 10° WNW 19:37:51 22° WSW 19:41:36 10° SSW visible
09 Mar 6.1 18:50:41 10° NW 18:55:55 47° WSW 19:00:39 10° S visible
10 Mar 7.4 05:38:17 10° SSE 05:42:21 27° ESE 05:46:50 10° NE visible
11 Mar 8.1 04:58:26 10° SE 05:00:21 13° ESE 05:02:43 10° E visible
11 Mar 8.1 19:12:02 10° W 19:14:24 13° WSW 19:16:20 10° SW visible
12 Mar 7.4 18:27:53 10° NW 18:32:25 27° WSW 18:36:29 10° SSW visible
13 Mar 6.1 05:14:08 10° S 05:18:50 47° ESE 05:24:02 10° NE visible
14 Mar 7.3 04:33:09 10° SSE 04:36:54 22° ESE 04:41:04 10° ENE visible
